• In Uzbekistan
  • List of Countries
  • For 7 days
  • Water Temperature
  • Satellite Maps
  • Weather Map
  • Weather Widgets
  • user-avatar
    Login

    Hourly Weather Kurah

    Today, 20 June, Wednesday

    Time Temperature Precipitation Wind Pressure Humidity
    00:00 +13°C° 0 mm 1 mps 646 mmHg 67%
    01:00 +13°C° 0 mm 1 mps 646 mmHg 67%
    02:00 +13°C° 0 mm 1 mps 646 mmHg 67%
    03:00 +13°C° 0 mm 1 mps 646 mmHg 67%
    04:00 +14°C° 0 mm 1 mps 647 mmHg 66%
    05:00 +15°C° 0 mm 1 mps 647 mmHg 64%
    06:00 +16°C° 0 mm 1 mps 648 mmHg 63%
    07:00 +18°C° 0 mm 1 mps 648 mmHg 61%
    08:00 +19°C° 0 mm 1 mps 648 mmHg 58%
    09:00 +19°C° 0 mm 2 mps 649 mmHg 56%
    10:00 +20°C° 0.2 mm 2 mps 649 mmHg 56%
    11:00 +20°C° 0.2 mm 2 mps 649 mmHg 56%
    12:00 +21°C° 0.2 mm 3 mps 649 mmHg 56%
    13:00 +21°C° 0.6 mm 2 mps 649 mmHg 57%
    14:00 +20°C° 0.6 mm 2 mps 649 mmHg 58%
    15:00 +20°C° 0.6 mm 2 mps 649 mmHg 59%
    16:00 +20°C° 0.5 mm 2 mps 649 mmHg 62%
    17:00 +20°C° 0.5 mm 1 mps 648 mmHg 65%
    18:00 +19°C° 0.5 mm 1 mps 648 mmHg 68%
    19:00 +18°C° 0.1 mm 1 mps 648 mmHg 70%
    20:00 +16°C° 0.1 mm 1 mps 648 mmHg 72%
    21:00 +15°C° 0.1 mm 1 mps 648 mmHg 75%
    22:00 +15°C° 0 mm 1 mps 648 mmHg 75%
    23:00 +14°C° 0 mm 2 mps 648 mmHg 74%

    Tomorrow, 21 June, Thursday

    Time Temperature Precipitation Wind Pressure Humidity
    00:00 +14°C° 0 mm 2 mps 648 mmHg 74%
    01:00 +14°C° 0 mm 2 mps 648 mmHg 73%
    02:00 +14°C° 0 mm 2 mps 648 mmHg 72%
    03:00 +13°C° 0 mm 2 mps 648 mmHg 71%
    04:00 +14°C° 0 mm 2 mps 648 mmHg 69%
    05:00 +15°C° 0 mm 2 mps 648 mmHg 66%
    06:00 +16°C° 0 mm 2 mps 649 mmHg 63%
    07:00 +18°C° 0 mm 2 mps 649 mmHg 55%
    08:00 +20°C° 0 mm 2 mps 650 mmHg 48%
    09:00 +21°C° 0 mm 2 mps 650 mmHg 40%
    10:00 +23°C° 0 mm 2 mps 650 mmHg 40%
    11:00 +24°C° 0 mm 2 mps 650 mmHg 39%
    12:00 +24°C° 0 mm 3 mps 650 mmHg 39%
    13:00 +24°C° 0 mm 2 mps 650 mmHg 41%
    14:00 +24°C° 0 mm 2 mps 650 mmHg 43%
    15:00 +24°C° 0 mm 2 mps 649 mmHg 44%
    16:00 +23°C° 0 mm 2 mps 649 mmHg 48%
    17:00 +22°C° 0 mm 1 mps 649 mmHg 51%
    18:00 +22°C° 0 mm 1 mps 649 mmHg 54%
    19:00 +20°C° 0 mm 1 mps 648 mmHg 57%
    20:00 +17°C° 0 mm 2 mps 648 mmHg 61%
    21:00 +15°C° 0 mm 2 mps 648 mmHg 64%
    22:00 +15°C° 0 mm 2 mps 647 mmHg 65%
    23:00 +15°C° 0 mm 2 mps 647 mmHg 66%

    Day after tomorrow, 22 June, Friday

    Time Temperature Precipitation Wind Pressure Humidity
    00:00 +15°C° 0 mm 2 mps 647 mmHg 68%
    01:00 +15°C° 0 mm 2 mps 647 mmHg 68%
    02:00 +15°C° 0 mm 2 mps 647 mmHg 68%
    03:00 +15°C° 0 mm 2 mps 647 mmHg 67%
    04:00 +16°C° 0 mm 2 mps 647 mmHg 66%
    05:00 +18°C° 0 mm 1 mps 647 mmHg 65%
    06:00 +19°C° 0 mm 1 mps 648 mmHg 64%
    07:00 +21°C° 0 mm 1 mps 648 mmHg 57%
    08:00 +21°C° 0 mm 2 mps 648 mmHg 51%
    09:00 +24°C° 0 mm 2 mps 649 mmHg 45%
    10:00 +25°C° 0 mm 3 mps 649 mmHg 43%
    11:00 +25°C° 0 mm 3 mps 648 mmHg 42%
    12:00 +26°C° 0 mm 4 mps 648 mmHg 40%
    13:00 +26°C° 0 mm 4 mps 648 mmHg 40%
    14:00 +26°C° 0 mm 4 mps 647 mmHg 40%
    15:00 +26°C° 0 mm 4 mps 647 mmHg 40%
    16:00 +25°C° 0 mm 3 mps 647 mmHg 43%
    17:00 +24°C° 0 mm 3 mps 646 mmHg 47%
    18:00 +23°C° 0 mm 2 mps 646 mmHg 51%
    19:00 +20°C° 0 mm 2 mps 645 mmHg 53%
    20:00 +18°C° 0 mm 2 mps 645 mmHg 55%
    21:00 +16°C° 0 mm 2 mps 645 mmHg 57%
    22:00 +16°C° 0 mm 2 mps 644 mmHg 55%
    23:00 +16°C° 0 mm 2 mps 644 mmHg 53%

    23 June, Saturday

    Time Temperature Precipitation Wind Pressure Humidity
    00:00 +16°C° 0 mm 2 mps 644 mmHg 50%
    01:00 +16°C° 0 mm 2 mps 644 mmHg 48%
    02:00 +15°C° 0 mm 2 mps 644 mmHg 46%
    03:00 +15°C° 0 mm 2 mps 644 mmHg 43%
    04:00 +16°C° 0 mm 2 mps 644 mmHg 44%
    05:00 +17°C° 0 mm 2 mps 644 mmHg 46%
    06:00 +20°C° 0 mm 1 mps 645 mmHg 47%
    07:00 +20°C° 0 mm 2 mps 645 mmHg 43%
    08:00 +23°C° 0 mm 2 mps 646 mmHg 40%
    09:00 +25°C° 0 mm 2 mps 646 mmHg 36%
    10:00 +26°C° 0 mm 2 mps 646 mmHg 36%
    11:00 +26°C° 0 mm 3 mps 646 mmHg 36%
    12:00 +27°C° 0 mm 3 mps 646 mmHg 36%
    13:00 +27°C° 0.1 mm 3 mps 646 mmHg 37%
    14:00 +27°C° 0.1 mm 3 mps 646 mmHg 37%
    15:00 +27°C° 0.1 mm 3 mps 646 mmHg 38%
    16:00 +26°C° 0 mm 3 mps 645 mmHg 43%
    17:00 +25°C° 0 mm 2 mps 645 mmHg 47%
    18:00 +24°C° 0 mm 2 mps 645 mmHg 51%
    19:00 +21°C° 0 mm 2 mps 645 mmHg 53%
    20:00 +20°C° 0 mm 2 mps 645 mmHg 55%
    21:00 +18°C° 0 mm 2 mps 644 mmHg 57%
    22:00 +18°C° 0 mm 2 mps 644 mmHg 55%
    23:00 +17°C° 0 mm 2 mps 644 mmHg 53%

    24 June, Sunday

    Time Temperature Precipitation Wind Pressure Humidity
    00:00 +17°C° 0 mm 2 mps 644 mmHg 51%
    01:00 +17°C° 0 mm 2 mps 644 mmHg 50%
    02:00 +17°C° 0 mm 2 mps 644 mmHg 48%
    03:00 +17°C° 0 mm 2 mps 644 mmHg 47%
    04:00 +18°C° 0 mm 2 mps 645 mmHg 48%
    05:00 +19°C° 0 mm 2 mps 646 mmHg 50%
    06:00 +21°C° 0 mm 1 mps 646 mmHg 51%
    07:00 +21°C° 0 mm 2 mps 647 mmHg 48%
    08:00 +24°C° 0 mm 2 mps 647 mmHg 45%
    09:00 +25°C° 0 mm 2 mps 648 mmHg 42%
    10:00 +26°C° 0.1 mm 3 mps 648 mmHg 42%
    11:00 +27°C° 0.1 mm 3 mps 648 mmHg 43%
    12:00 +27°C° 0.1 mm 3 mps 648 mmHg 43%
    13:00 +27°C° 0.2 mm 3 mps 648 mmHg 44%
    14:00 +27°C° 0.2 mm 3 mps 648 mmHg 46%
    15:00 +27°C° 0.2 mm 3 mps 648 mmHg 47%
    16:00 +26°C° 0.1 mm 3 mps 648 mmHg 51%
    17:00 +25°C° 0.1 mm 2 mps 648 mmHg 54%
    18:00 +24°C° 0.1 mm 2 mps 648 mmHg 57%
    19:00 +23°C° 0 mm 2 mps 648 mmHg 61%
    20:00 +20°C° 0 mm 2 mps 648 mmHg 66%
    21:00 +19°C° 0 mm 1 mps 647 mmHg 70%
    22:00 +18°C° 0 mm 2 mps 647 mmHg 68%
    23:00 +18°C° 0 mm 2 mps 647 mmHg 66%

    25 June, Monday

    Time Temperature Precipitation Wind Pressure Humidity
    00:00 +18°C° 0 mm 2 mps 647 mmHg 65%
    01:00 +18°C° 0 mm 2 mps 647 mmHg 64%
    02:00 +17°C° 0 mm 2 mps 647 mmHg 63%
    03:00 +17°C° 0 mm 2 mps 647 mmHg 62%
    04:00 +19°C° 0 mm 1 mps 648 mmHg 60%
    05:00 +21°C° 0 mm 1 mps 648 mmHg 58%
    06:00 +22°C° 0 mm 1 mps 649 mmHg 57%
    07:00 +23°C° 0 mm 1 mps 649 mmHg 52%
    08:00 +25°C° 0 mm 2 mps 650 mmHg 48%
    09:00 +26°C° 0 mm 2 mps 650 mmHg 43%
    10:00 +27°C° 0 mm 3 mps 650 mmHg 43%
    11:00 +27°C° 0 mm 3 mps 650 mmHg 44%
    12:00 +28°C° 0 mm 4 mps 650 mmHg 44%
    13:00 +28°C° 0 mm 4 mps 649 mmHg 45%
    14:00 +28°C° 0 mm 4 mps 649 mmHg 46%
    15:00 +27°C° 0 mm 3 mps 649 mmHg 47%
    16:00 +27°C° 0.1 mm 3 mps 649 mmHg 51%
    17:00 +26°C° 0.1 mm 2 mps 648 mmHg 55%
    18:00 +25°C° 0.1 mm 2 mps 648 mmHg 58%
    19:00 +23°C° 0 mm 2 mps 648 mmHg 59%
    20:00 +20°C° 0 mm 2 mps 647 mmHg 61%
    21:00 +20°C° 0 mm 1 mps 647 mmHg 62%
    22:00 +19°C° 0 mm 2 mps 647 mmHg 57%
    23:00 +18°C° 0 mm 2 mps 647 mmHg 52%
    Show more